EZY41DF EGKK-LPPR

Flight info

Callsign EZY41DF
Flight time 1h 57m
Altitude 31000
Route NOVMA L620 SAM M195 LORKU DCT EBOMO DCT COQUE DCT KORUL DCT ELTEP/N0374F230 T328 ASPOR
Aircraft A21N/M-SDE2E3FGHIRWXY/LB1

Departure

Time 2026-04-16 07:25
Airport London Gatwick Airport (EGKK)

Arrival

Time 2026-04-16 09:22
Airport Francisco de Sá Carneiro Airport (LPPR)
Time Latitude Longitude Altitude Speed Heading
2026-04-16 06:45 51.15966 -0.17121 209 ft 0 kts 315°
2026-04-16 07:13 51.15965 -0.17120 209 ft 2 kts 315°
2026-04-16 07:14 51.15948 -0.17092 219 ft 4 kts 315°
2026-04-16 07:14 51.15929 -0.17062 213 ft 4 kts 303°
2026-04-16 07:14 51.15924 -0.17031 211 ft 4 kts 239°
2026-04-16 07:14 51.15937 -0.17004 219 ft 4 kts 229°
2026-04-16 07:15 51.15943 -0.16993 219 ft 1 kts 229°
2026-04-16 07:18 51.15936 -0.17006 219 ft 3 kts 225°
2026-04-16 07:18 51.15912 -0.17038 210 ft 6 kts 214°
2026-04-16 07:18 51.15865 -0.17072 211 ft 9 kts 193°
2026-04-16 07:18 51.15815 -0.17140 209 ft 11 kts 245°
2026-04-16 07:19 51.15794 -0.17270 211 ft 13 kts 258°
2026-04-16 07:19 51.15775 -0.17428 211 ft 16 kts 256°
2026-04-16 07:19 51.15680 -0.17484 211 ft 18 kts 166°
2026-04-16 07:19 51.15557 -0.17442 213 ft 18 kts 169°
2026-04-16 07:20 51.15432 -0.17400 215 ft 19 kts 167°
2026-04-16 07:20 51.15304 -0.17355 217 ft 19 kts 167°
2026-04-16 07:20 51.15247 -0.17203 212 ft 20 kts 73°
2026-04-16 07:20 51.15280 -0.16994 211 ft 18 kts 79°
2026-04-16 07:21 51.15296 -0.16857 211 ft 9 kts 94°
2026-04-16 07:21 51.15289 -0.16833 209 ft 0 kts 135°
2026-04-16 07:23 51.15286 -0.16829 215 ft 3 kts 152°
2026-04-16 07:23 51.15256 -0.16816 209 ft 6 kts 168°
2026-04-16 07:23 51.15204 -0.16799 211 ft 9 kts 169°
2026-04-16 07:24 51.15136 -0.16813 211 ft 11 kts 221°
2026-04-16 07:24 51.15102 -0.16939 208 ft 14 kts 258°
2026-04-16 07:24 51.15072 -0.17168 218 ft 47 kts 257°
2026-04-16 07:24 51.14949 -0.18047 214 ft 115 kts 258°
2026-04-16 07:25 51.14740 -0.19572 295 ft 156 kts 256°
2026-04-16 07:25 51.14506 -0.21294 841 ft 160 kts 254°
2026-04-16 07:25 51.14254 -0.23049 1490 ft 168 kts 254°
2026-04-16 07:25 51.13983 -0.24967 1917 ft 186 kts 255°
2026-04-16 07:26 51.13692 -0.27063 2429 ft 202 kts 256°
2026-04-16 07:26 51.13366 -0.29390 2803 ft 228 kts 256°
2026-04-16 07:26 51.13010 -0.31954 3387 ft 241 kts 256°
2026-04-16 07:26 51.12649 -0.34544 4033 ft 238 kts 257°
2026-04-16 07:27 51.12288 -0.37152 4792 ft 244 kts 257°
2026-04-16 07:27 51.11923 -0.39802 5616 ft 246 kts 257°
2026-04-16 07:27 51.11536 -0.42473 6422 ft 249 kts 253°
2026-04-16 07:27 51.10885 -0.44996 7160 ft 252 kts 244°
2026-04-16 07:28 51.10097 -0.47505 7927 ft 255 kts 243°
2026-04-16 07:28 51.09295 -0.50042 8711 ft 258 kts 244°
2026-04-16 07:28 51.08486 -0.52618 9513 ft 262 kts 244°
2026-04-16 07:28 51.07667 -0.55230 10282 ft 266 kts 244°
2026-04-16 07:29 51.06838 -0.57873 11026 ft 269 kts 244°
2026-04-16 07:29 51.05999 -0.60552 11792 ft 272 kts 244°
2026-04-16 07:29 51.05269 -0.63338 12563 ft 274 kts 254°
2026-04-16 07:29 51.04830 -0.66302 13337 ft 277 kts 258°
2026-04-16 07:30 51.04440 -0.69321 14087 ft 279 kts 258°
2026-04-16 07:30 51.04041 -0.72355 14771 ft 281 kts 258°
2026-04-16 07:30 51.03638 -0.75406 15465 ft 283 kts 258°
2026-04-16 07:30 51.03226 -0.78514 15893 ft 295 kts 258°
2026-04-16 07:31 51.02786 -0.81794 16185 ft 310 kts 258°
2026-04-16 07:31 51.02328 -0.85180 16739 ft 317 kts 258°
2026-04-16 07:31 51.01867 -0.88575 17379 ft 320 kts 258°
2026-04-16 07:31 51.01395 -0.92043 18062 ft 322 kts 258°
2026-04-16 07:32 51.00923 -0.95531 18684 ft 324 kts 258°
2026-04-16 07:32 51.00442 -0.99037 19263 ft 326 kts 258°
2026-04-16 07:32 50.99956 -1.02557 19858 ft 327 kts 258°
2026-04-16 07:32 50.99468 -1.06097 20413 ft 329 kts 258°
2026-04-16 07:33 50.98715 -1.09548 20969 ft 333 kts 245°
2026-04-16 07:33 50.97392 -1.12600 21500 ft 340 kts 232°
2026-04-16 07:33 50.95699 -1.15253 22033 ft 344 kts 227°
2026-04-16 07:33 50.93917 -1.17819 22563 ft 347 kts 227°
2026-04-16 07:34 50.92133 -1.20408 23098 ft 349 kts 227°
2026-04-16 07:34 50.90349 -1.23033 23600 ft 351 kts 227°
2026-04-16 07:34 50.88563 -1.25686 24014 ft 353 kts 228°
2026-04-16 07:34 50.86795 -1.28320 24368 ft 354 kts 228°
2026-04-16 07:35 50.84998 -1.30999 24721 ft 356 kts 228°
2026-04-16 07:35 50.83189 -1.33695 25047 ft 358 kts 228°
2026-04-16 07:35 50.81370 -1.36409 25361 ft 359 kts 228°
2026-04-16 07:35 50.79553 -1.39123 25665 ft 360 kts 228°
2026-04-16 07:36 50.77725 -1.41846 25982 ft 362 kts 228°
2026-04-16 07:36 50.75890 -1.44577 26286 ft 363 kts 228°
2026-04-16 07:36 50.74049 -1.47317 26585 ft 364 kts 228°
2026-04-16 07:36 50.72201 -1.50064 26875 ft 365 kts 228°
2026-04-16 07:37 50.70347 -1.52812 27157 ft 366 kts 228°
2026-04-16 07:37 50.68483 -1.55569 27429 ft 368 kts 228°
2026-04-16 07:37 50.66606 -1.58337 27687 ft 369 kts 228°
2026-04-16 07:37 50.64751 -1.61071 27930 ft 370 kts 228°
2026-04-16 07:38 50.62870 -1.63844 28128 ft 372 kts 228°
2026-04-16 07:38 50.60977 -1.66634 28338 ft 373 kts 228°
2026-04-16 07:38 50.59069 -1.69440 28551 ft 375 kts 228°
2026-04-16 07:38 50.57151 -1.72252 28772 ft 377 kts 228°
2026-04-16 07:39 50.55233 -1.75077 28995 ft 378 kts 229°
2026-04-16 07:39 50.53294 -1.77877 29217 ft 380 kts 226°
2026-04-16 07:39 50.51150 -1.80380 29421 ft 386 kts 220°
2026-04-16 07:39 50.48892 -1.82697 29634 ft 388 kts 219°
2026-04-16 07:40 50.46646 -1.84965 29838 ft 389 kts 219°
2026-04-16 07:40 50.44370 -1.87266 30060 ft 390 kts 219°
2026-04-16 07:40 50.42084 -1.89579 30268 ft 390 kts 219°
2026-04-16 07:40 50.39797 -1.91893 30422 ft 391 kts 219°
2026-04-16 07:41 50.37506 -1.94218 30577 ft 393 kts 220°
2026-04-16 07:41 50.35203 -1.96553 30731 ft 394 kts 220°
2026-04-16 07:41 50.32897 -1.98886 30893 ft 395 kts 220°
2026-04-16 07:41 50.30588 -2.01223 31067 ft 395 kts 220°
2026-04-16 07:42 50.28273 -2.03560 31182 ft 397 kts 220°
2026-04-16 07:42 50.23603 -2.08260 31191 ft 405 kts 219°
2026-04-16 07:43 50.18810 -2.12919 31177 ft 405 kts 219°
2026-04-16 07:43 50.14003 -2.17587 31164 ft 408 kts 219°
2026-04-16 07:44 50.09191 -2.22262 31177 ft 407 kts 219°
2026-04-16 07:44 50.04374 -2.26923 31179 ft 407 kts 219°
2026-04-16 07:45 49.99574 -2.31569 31185 ft 405 kts 219°
2026-04-16 07:45 49.94814 -2.36160 31187 ft 405 kts 219°
2026-04-16 07:46 49.90013 -2.40780 31175 ft 406 kts 219°
2026-04-16 07:46 49.85220 -2.45387 31180 ft 405 kts 219°
2026-04-16 07:47 49.80426 -2.49987 31180 ft 405 kts 219°
2026-04-16 07:47 49.75630 -2.54579 31181 ft 405 kts 219°
2026-04-16 07:48 49.70829 -2.59164 31160 ft 407 kts 219°
2026-04-16 07:48 49.66008 -2.63756 31194 ft 407 kts 218°
2026-04-16 07:49 49.61178 -2.68343 31200 ft 407 kts 218°
2026-04-16 07:49 49.57171 -2.72137 31201 ft 406 kts 218°
2026-04-16 07:50 49.51563 -2.77438 31199 ft 406 kts 218°
2026-04-16 07:50 49.46733 -2.81974 31185 ft 408 kts 218°
2026-04-16 07:51 49.42672 -2.85789 31191 ft 408 kts 218°
2026-04-16 07:51 49.37858 -2.90317 31202 ft 408 kts 218°
2026-04-16 07:52 49.33015 -2.94860 31196 ft 408 kts 218°
2026-04-16 07:52 49.28169 -2.99397 31203 ft 408 kts 218°
2026-04-16 07:53 49.23296 -3.03943 31188 ft 410 kts 218°
2026-04-16 07:53 49.18422 -3.08474 31201 ft 410 kts 218°
2026-04-16 07:54 49.13583 -3.12963 31205 ft 408 kts 218°
2026-04-16 07:54 49.11152 -3.15220 31317 ft 408 kts 218°
2026-04-16 07:54 49.08729 -3.17465 31619 ft 406 kts 218°
2026-04-16 07:54 49.06314 -3.19700 31899 ft 404 kts 218°
2026-04-16 07:55 49.03919 -3.21916 32144 ft 403 kts 218°
2026-04-16 07:55 49.01524 -3.24130 32301 ft 403 kts 218°
2026-04-16 07:55 48.99122 -3.26345 32470 ft 403 kts 217°
2026-04-16 07:55 48.96719 -3.28557 32667 ft 403 kts 217°
2026-04-16 07:56 48.94319 -3.30761 32853 ft 403 kts 217°
2026-04-16 07:56 48.91921 -3.32961 33038 ft 403 kts 217°
2026-04-16 07:56 48.89514 -3.35166 33170 ft 404 kts 217°
2026-04-16 07:57 48.84665 -3.39625 33219 ft 411 kts 217°
2026-04-16 07:57 48.79745 -3.44128 33207 ft 417 kts 217°
2026-04-16 07:58 48.74753 -3.48683 33204 ft 418 kts 217°
2026-04-16 07:58 48.69789 -3.53196 33201 ft 416 kts 217°
2026-04-16 07:59 48.64822 -3.57704 33203 ft 416 kts 217°
2026-04-16 07:59 48.59854 -3.62195 33204 ft 416 kts 217°
2026-04-16 08:00 48.54898 -3.66653 33198 ft 417 kts 216°
2026-04-16 08:00 48.49909 -3.71146 33211 ft 417 kts 216°
2026-04-16 08:01 48.44925 -3.75635 33213 ft 417 kts 216°
2026-04-16 08:01 48.39933 -3.80111 33209 ft 417 kts 216°
2026-04-16 08:02 48.34928 -3.84587 33192 ft 419 kts 216°
2026-04-16 08:02 48.27410 -3.91284 33216 ft 417 kts 216°
2026-04-16 08:03 48.22429 -3.95733 33226 ft 416 kts 216°
2026-04-16 08:03 48.17482 -4.00140 33226 ft 416 kts 216°
2026-04-16 08:04 48.12480 -4.04574 33218 ft 420 kts 216°
2026-04-16 08:04 48.07451 -4.09013 33229 ft 420 kts 216°
2026-04-16 08:05 48.02435 -4.13435 33230 ft 418 kts 216°
2026-04-16 08:05 47.97421 -4.17848 33230 ft 418 kts 216°
2026-04-16 08:06 47.92426 -4.22234 33212 ft 419 kts 215°
2026-04-16 08:06 47.87391 -4.26642 33228 ft 417 kts 215°
2026-04-16 08:07 47.82379 -4.31029 33229 ft 417 kts 216°
2026-04-16 08:07 47.77445 -4.35580 33233 ft 417 kts 217°
2026-04-16 08:08 47.72519 -4.40146 33235 ft 417 kts 217°
2026-04-16 08:08 47.67598 -4.44700 33235 ft 419 kts 216°
2026-04-16 08:09 47.62647 -4.49264 33247 ft 418 kts 216°
2026-04-16 08:09 47.57695 -4.53811 33241 ft 417 kts 216°
2026-04-16 08:10 47.52748 -4.58336 33240 ft 417 kts 216°
2026-04-16 08:10 47.47822 -4.62849 33229 ft 420 kts 216°
2026-04-16 08:11 47.42858 -4.67385 33240 ft 419 kts 216°
2026-04-16 08:11 47.37889 -4.71911 33242 ft 419 kts 216°
2026-04-16 08:12 47.32918 -4.76434 33243 ft 420 kts 216°
2026-04-16 08:12 47.27951 -4.80951 33229 ft 420 kts 216°
2026-04-16 08:13 47.22964 -4.85481 33245 ft 421 kts 216°
2026-04-16 08:13 47.18009 -4.89963 33246 ft 421 kts 216°
2026-04-16 08:14 47.13024 -4.94462 33254 ft 420 kts 216°
2026-04-16 08:14 47.08051 -4.98934 33252 ft 418 kts 216°
2026-04-16 08:15 47.03080 -5.03411 33246 ft 419 kts 216°
2026-04-16 08:15 46.98136 -5.07858 33251 ft 419 kts 216°
2026-04-16 08:16 46.93167 -5.12316 33256 ft 419 kts 216°
2026-04-16 08:16 46.88190 -5.16775 33249 ft 419 kts 216°
2026-04-16 08:17 46.83197 -5.21236 33247 ft 421 kts 215°
2026-04-16 08:17 46.78229 -5.25659 33249 ft 421 kts 215°
2026-04-16 08:19 46.58313 -5.43296 33257 ft 418 kts 215°
2026-04-16 08:20 46.53340 -5.47682 33260 ft 418 kts 215°
2026-04-16 08:20 46.48399 -5.52032 33257 ft 418 kts 215°
2026-04-16 08:21 46.43422 -5.56402 33253 ft 418 kts 215°
2026-04-16 08:21 46.38430 -5.60783 33252 ft 419 kts 215°
2026-04-16 08:22 46.33453 -5.65139 33256 ft 417 kts 214°
2026-04-16 08:22 46.28476 -5.69478 33257 ft 417 kts 214°
2026-04-16 08:23 46.23497 -5.73810 33259 ft 417 kts 214°
2026-04-16 08:23 46.18518 -5.78137 33256 ft 418 kts 214°
2026-04-16 08:24 46.13564 -5.82428 33258 ft 418 kts 214°
2026-04-16 08:24 46.08572 -5.86747 33261 ft 418 kts 214°
2026-04-16 08:25 46.03588 -5.91046 33259 ft 418 kts 214°
2026-04-16 08:25 45.98611 -5.95333 33260 ft 418 kts 214°
2026-04-16 08:26 45.93628 -5.99611 33260 ft 417 kts 214°
2026-04-16 08:26 45.88645 -6.03886 33261 ft 417 kts 214°
2026-04-16 08:27 45.83654 -6.08141 33267 ft 417 kts 213°
2026-04-16 08:27 45.78670 -6.12395 33257 ft 418 kts 214°
2026-04-16 08:28 45.73701 -6.16639 33264 ft 418 kts 213°
2026-04-16 08:28 45.68705 -6.20891 33268 ft 417 kts 213°
2026-04-16 08:29 45.63699 -6.25142 33267 ft 418 kts 213°
2026-04-16 08:29 45.58705 -6.29372 33248 ft 417 kts 213°
2026-04-16 08:30 45.53707 -6.33596 33259 ft 417 kts 213°
2026-04-16 08:30 45.48698 -6.37813 33266 ft 417 kts 213°
2026-04-16 08:31 45.43731 -6.41990 33261 ft 417 kts 213°
2026-04-16 08:31 45.38726 -6.46194 33256 ft 418 kts 213°
2026-04-16 08:32 45.33721 -6.50391 33256 ft 418 kts 213°
2026-04-16 08:32 45.28739 -6.54557 33264 ft 418 kts 213°
2026-04-16 08:33 45.23732 -6.58731 33274 ft 416 kts 213°
2026-04-16 08:33 45.18733 -6.62894 33249 ft 417 kts 213°
2026-04-16 08:34 45.13715 -6.67063 33269 ft 417 kts 213°
2026-04-16 08:34 45.08694 -6.71227 33272 ft 417 kts 213°
2026-04-16 08:35 45.03684 -6.75373 33268 ft 417 kts 212°
2026-04-16 08:35 44.98701 -6.79492 33257 ft 417 kts 212°
2026-04-16 08:36 44.93670 -6.83637 33268 ft 418 kts 212°
2026-04-16 08:36 44.89488 -6.87076 33280 ft 418 kts 212°
2026-04-16 08:37 44.84445 -6.91169 33272 ft 419 kts 210°
2026-04-16 08:37 44.78914 -6.93912 33276 ft 423 kts 199°
2026-04-16 08:38 44.73215 -6.96156 33271 ft 425 kts 199°
2026-04-16 08:38 44.67572 -6.98416 33271 ft 424 kts 199°
2026-04-16 08:39 44.61889 -7.00699 33271 ft 424 kts 199°
2026-04-16 08:39 44.56201 -7.02982 33272 ft 424 kts 199°
2026-04-16 08:40 44.50526 -7.05255 33274 ft 424 kts 199°
2026-04-16 08:40 44.44871 -7.07515 33274 ft 424 kts 199°
2026-04-16 08:41 44.39191 -7.09761 33260 ft 424 kts 199°
2026-04-16 08:41 44.33497 -7.12037 33270 ft 425 kts 199°
2026-04-16 08:42 44.27804 -7.14313 33271 ft 425 kts 199°
2026-04-16 08:42 44.22103 -7.16573 33276 ft 425 kts 199°
2026-04-16 08:43 44.16397 -7.18835 33266 ft 427 kts 199°
2026-04-16 08:43 44.10715 -7.21079 33274 ft 427 kts 199°
2026-04-16 08:44 44.04994 -7.23330 33279 ft 428 kts 200°
2026-04-16 08:44 43.99255 -7.25582 33256 ft 428 kts 200°
2026-04-16 08:45 43.93492 -7.27852 33268 ft 430 kts 200°
2026-04-16 08:45 43.87738 -7.30101 33265 ft 429 kts 200°
2026-04-16 08:46 43.82014 -7.32328 33263 ft 429 kts 200°
2026-04-16 08:46 43.76256 -7.34576 33257 ft 431 kts 200°
2026-04-16 08:47 43.70484 -7.36830 33260 ft 431 kts 200°
2026-04-16 08:47 43.64707 -7.39074 33256 ft 431 kts 200°
2026-04-16 08:48 43.58924 -7.41315 33233 ft 431 kts 200°
2026-04-16 08:48 43.53129 -7.43560 33252 ft 433 kts 200°
2026-04-16 08:49 43.47357 -7.45787 33252 ft 433 kts 200°
2026-04-16 08:49 43.41537 -7.48028 33251 ft 434 kts 200°
2026-04-16 08:50 43.35716 -7.50273 33243 ft 434 kts 200°
2026-04-16 08:50 43.29899 -7.52504 33250 ft 434 kts 200°
2026-04-16 08:51 43.24072 -7.54734 33242 ft 434 kts 200°
2026-04-16 08:51 43.18283 -7.56945 33245 ft 432 kts 200°
2026-04-16 08:52 43.12517 -7.59146 33240 ft 432 kts 200°
2026-04-16 08:52 43.06673 -7.61378 33245 ft 437 kts 201°
2026-04-16 08:53 43.00809 -7.63602 33240 ft 437 kts 201°
2026-04-16 08:53 42.94938 -7.65828 33235 ft 439 kts 201°
2026-04-16 08:54 42.89055 -7.68054 33237 ft 438 kts 201°
2026-04-16 08:54 42.83241 -7.70250 33235 ft 432 kts 201°
2026-04-16 08:55 42.77479 -7.72422 32689 ft 428 kts 201°
2026-04-16 08:55 42.74565 -7.73524 31457 ft 438 kts 200°
2026-04-16 08:55 42.71602 -7.74642 30493 ft 444 kts 200°
2026-04-16 08:56 42.68622 -7.75760 29652 ft 444 kts 199°
2026-04-16 08:56 42.65639 -7.76875 28821 ft 444 kts 199°
2026-04-16 08:56 42.62662 -7.77989 28010 ft 443 kts 199°
2026-04-16 08:56 42.59717 -7.79096 27207 ft 443 kts 199°
2026-04-16 08:57 42.56743 -7.80214 26376 ft 443 kts 199°
2026-04-16 08:57 42.53773 -7.81331 25551 ft 443 kts 199°
2026-04-16 08:57 42.50794 -7.82450 24714 ft 444 kts 198°
2026-04-16 08:57 42.47825 -7.83565 23982 ft 442 kts 198°
2026-04-16 08:58 42.44865 -7.84674 23171 ft 441 kts 198°
2026-04-16 08:58 42.41908 -7.85778 22500 ft 436 kts 198°
2026-04-16 08:58 42.38961 -7.86878 22003 ft 436 kts 198°
2026-04-16 08:58 42.36061 -7.87959 21527 ft 428 kts 198°
2026-04-16 08:59 42.33252 -7.89004 20996 ft 421 kts 198°
2026-04-16 08:59 42.30443 -7.90052 20351 ft 417 kts 198°
2026-04-16 08:59 42.27653 -7.91091 19795 ft 413 kts 198°
2026-04-16 08:59 42.24898 -7.92116 19253 ft 408 kts 198°
2026-04-16 09:00 42.22168 -7.93131 18621 ft 406 kts 198°
2026-04-16 09:00 42.19439 -7.94144 17903 ft 406 kts 198°
2026-04-16 09:00 42.16722 -7.95151 17311 ft 403 kts 198°
2026-04-16 09:00 42.13986 -7.96166 16802 ft 407 kts 198°
2026-04-16 09:01 42.08603 -7.98158 15775 ft 397 kts 198°
2026-04-16 09:01 42.05946 -7.99139 15274 ft 393 kts 198°
2026-04-16 09:01 42.03330 -8.00104 14852 ft 387 kts 198°
2026-04-16 09:02 42.00774 -8.01046 14415 ft 383 kts 199°
2026-04-16 09:02 41.98212 -8.01991 13929 ft 380 kts 199°
2026-04-16 09:02 41.95671 -8.02927 13404 ft 377 kts 199°
2026-04-16 09:02 41.93139 -8.03859 12869 ft 375 kts 199°
2026-04-16 09:03 41.90629 -8.04783 12317 ft 372 kts 199°
2026-04-16 09:03 41.88165 -8.05687 11988 ft 360 kts 199°
2026-04-16 09:03 41.85796 -8.06555 11748 ft 345 kts 199°
2026-04-16 09:03 41.83525 -8.07385 11582 ft 331 kts 199°
2026-04-16 09:04 41.81373 -8.08283 11425 ft 315 kts 207°
2026-04-16 09:04 41.79494 -8.09573 11293 ft 300 kts 212°
2026-04-16 09:04 41.77718 -8.10917 11162 ft 287 kts 213°
2026-04-16 09:04 41.76010 -8.12213 10915 ft 279 kts 213°
2026-04-16 09:05 41.74316 -8.13494 10507 ft 279 kts 213°
2026-04-16 09:05 41.72628 -8.14765 10124 ft 278 kts 213°
2026-04-16 09:05 41.70938 -8.16028 9750 ft 277 kts 211°
2026-04-16 09:05 41.69165 -8.17054 9357 ft 279 kts 203°
2026-04-16 09:06 41.67340 -8.17892 9032 ft 275 kts 202°
2026-04-16 09:06 41.65533 -8.18705 8808 ft 273 kts 202°
2026-04-16 09:06 41.63739 -8.19516 8659 ft 272 kts 202°
2026-04-16 09:06 41.61943 -8.20332 8527 ft 272 kts 202°
2026-04-16 09:07 41.60176 -8.21138 8408 ft 271 kts 202°
2026-04-16 09:07 41.58388 -8.21952 8290 ft 271 kts 202°
2026-04-16 09:07 41.56602 -8.22769 8165 ft 270 kts 202°
2026-04-16 09:07 41.54821 -8.23583 8040 ft 270 kts 202°
2026-04-16 09:08 41.53045 -8.24393 7916 ft 269 kts 202°
2026-04-16 09:08 41.51276 -8.25199 7794 ft 268 kts 202°
2026-04-16 09:08 41.49508 -8.26006 7672 ft 268 kts 202°
2026-04-16 09:08 41.47740 -8.26812 7529 ft 268 kts 201°
2026-04-16 09:09 41.45994 -8.27607 7421 ft 268 kts 201°
2026-04-16 09:09 41.44227 -8.28410 7311 ft 268 kts 201°
2026-04-16 09:09 41.42460 -8.29213 7231 ft 268 kts 201°
2026-04-16 09:09 41.40692 -8.30018 7179 ft 267 kts 201°
2026-04-16 09:10 41.38926 -8.30819 7096 ft 267 kts 201°
2026-04-16 09:10 41.37163 -8.31621 6975 ft 267 kts 201°
2026-04-16 09:10 41.35407 -8.32418 6852 ft 267 kts 201°
2026-04-16 09:10 41.33652 -8.33213 6734 ft 266 kts 201°
2026-04-16 09:11 41.31921 -8.33996 6608 ft 266 kts 200°
2026-04-16 09:11 41.30173 -8.34787 6495 ft 265 kts 201°
2026-04-16 09:11 41.28430 -8.35576 6369 ft 264 kts 201°
2026-04-16 09:11 41.26690 -8.36362 6245 ft 264 kts 201°
2026-04-16 09:12 41.24952 -8.37148 6106 ft 264 kts 200°
2026-04-16 09:12 41.23209 -8.37936 5976 ft 264 kts 200°
2026-04-16 09:12 41.21480 -8.38718 5847 ft 262 kts 200°
2026-04-16 09:12 41.19752 -8.39498 5722 ft 262 kts 200°
2026-04-16 09:13 41.18023 -8.40278 5603 ft 261 kts 200°
2026-04-16 09:13 41.16300 -8.41055 5474 ft 261 kts 200°
2026-04-16 09:13 41.14601 -8.41821 5354 ft 260 kts 200°
2026-04-16 09:13 41.12886 -8.42594 5227 ft 260 kts 200°
2026-04-16 09:14 41.11171 -8.43365 5102 ft 259 kts 200°
2026-04-16 09:14 41.09465 -8.44134 4980 ft 258 kts 199°
2026-04-16 09:14 41.07761 -8.44900 4850 ft 258 kts 200°
2026-04-16 09:14 41.06059 -8.45663 4723 ft 258 kts 200°
2026-04-16 09:15 41.04365 -8.46425 4513 ft 255 kts 199°
2026-04-16 09:15 41.02673 -8.47186 4221 ft 259 kts 200°
2026-04-16 09:15 41.01105 -8.48281 4047 ft 258 kts 220°
2026-04-16 09:15 41.00033 -8.50168 3933 ft 260 kts 247°
2026-04-16 09:16 40.99573 -8.52449 3917 ft 251 kts 259°
2026-04-16 09:16 40.99279 -8.54663 3917 ft 236 kts 259°
2026-04-16 09:16 40.99003 -8.56756 3925 ft 228 kts 260°
2026-04-16 09:16 40.98851 -8.58798 3927 ft 221 kts 274°
2026-04-16 09:17 40.99325 -8.60636 3924 ft 211 kts 305°
2026-04-16 09:17 41.00449 -8.61858 3702 ft 213 kts 337°
2026-04-16 09:17 41.01884 -8.62326 3411 ft 213 kts 350°
2026-04-16 09:17 41.03340 -8.62616 3088 ft 210 kts 350°
2026-04-16 09:18 41.04733 -8.62926 2947 ft 194 kts 349°
2026-04-16 09:18 41.06044 -8.63247 2948 ft 191 kts 348°
2026-04-16 09:18 41.07353 -8.63572 2952 ft 191 kts 348°
2026-04-16 09:18 41.08660 -8.63908 2953 ft 191 kts 348°
2026-04-16 09:19 41.09955 -8.64236 2879 ft 185 kts 348°
2026-04-16 09:19 41.11174 -8.64555 2645 ft 174 kts 348°
2026-04-16 09:19 41.12320 -8.64856 2374 ft 167 kts 348°
2026-04-16 09:19 41.13452 -8.65151 2138 ft 165 kts 348°
2026-04-16 09:20 41.14571 -8.65445 1923 ft 163 kts 349°
2026-04-16 09:20 41.15687 -8.65744 1712 ft 162 kts 348°
2026-04-16 09:20 41.16761 -8.66023 1496 ft 155 kts 349°
2026-04-16 09:20 41.17816 -8.66296 1301 ft 154 kts 349°
2026-04-16 09:21 41.18866 -8.66575 1092 ft 154 kts 348°
2026-04-16 09:21 41.19898 -8.66866 909 ft 153 kts 348°
2026-04-16 09:21 41.20943 -8.67134 744 ft 153 kts 349°
2026-04-16 09:21 41.21987 -8.67382 512 ft 152 kts 349°
2026-04-16 09:22 41.23023 -8.67657 315 ft 151 kts 349°
2026-04-16 09:22 41.24011 -8.67915 251 ft 132 kts 349°
2026-04-16 09:22 41.24697 -8.68095 255 ft 71 kts 348°
2026-04-16 09:22 41.25014 -8.68177 251 ft 23 kts 352°
2026-04-16 09:23 41.25168 -8.68146 253 ft 23 kts 15°
2026-04-16 09:23 41.25285 -8.68080 253 ft 16 kts 67°
2026-04-16 09:23 41.25208 -8.67998 253 ft 18 kts 170°
2026-04-16 09:23 41.25082 -8.67965 253 ft 19 kts 168°
2026-04-16 09:24 41.25008 -8.67946 252 ft 20 kts 169°
2026-04-16 09:24 41.24880 -8.67910 253 ft 22 kts 157°
2026-04-16 09:24 41.24742 -8.67821 253 ft 23 kts 166°
2026-04-16 09:24 41.24528 -8.67764 253 ft 25 kts 169°
2026-04-16 09:25 41.24443 -8.67743 251 ft 9 kts 169°
2026-04-16 09:25 41.24378 -8.67728 254 ft 10 kts 169°
2026-04-16 09:25 41.24303 -8.67695 254 ft 12 kts 150°
2026-04-16 09:25 41.24244 -8.67602 254 ft 14 kts 125°
2026-04-16 09:26 41.24174 -8.67501 253 ft 16 kts 143°
2026-04-16 09:26 41.24075 -8.67426 254 ft 17 kts 172°
2026-04-16 09:26 41.23998 -8.67421 254 ft 6 kts 194°
2026-04-16 09:26 41.23962 -8.67396 254 ft 8 kts 122°
2026-04-16 09:27 41.23934 -8.67340 252 ft 5 kts 124°
2026-04-16 09:27 41.23927 -8.67327 254 ft 0 kts 124°